Waarnemingen

Advertentie
Mijn weer
Terschelling/Hoorn, Nederland (6251): temperatuur & dauwpunt: 10.08.2018 21:00:00 - 16.08.2018 21:00:00 (CEST)Terschelling/Hoorn, Nederland (6251): temperatuur 5cm: 10.08.2018 21:00:00 - 16.08.2018 21:00:00 (CEST)Terschelling/Hoorn, Nederland (6251): windsnelheid & windstoten: 10.08.2018 21:00:00 - 16.08.2018 21:00:00 (CEST)Terschelling/Hoorn, Nederland (6251): windrichting: 10.08.2018 21:00:00 - 16.08.2018 21:00:00 (CEST)Terschelling/Hoorn, Nederland (6251): luchtdruk: 10.08.2018 21:00:00 - 16.08.2018 21:00:00 (CEST)Terschelling/Hoorn, Nederland (6251): zicht: 10.08.2018 21:00:00 - 16.08.2018 21:00:00 (CEST)Terschelling/Hoorn, Nederland (6251): neerslag: 10.08.2018 21:00:00 - 16.08.2018 21:00:00 (CEST)
Datum & Tijd tt [°C] td [°C] tt 5cm [°C] ff [km/u] ff [kn] fx [km/u] fx [kn] dd ppp [hPa] vv [km] rr [mm]
16.08.2018 21:00:00 17,8 15,1 17,4 25 14 40 21 ZW 1013,8 50 0,0
16.08.2018 20:00:00 18,3 13,9 17,7 29 16 43 23 ZZW 1013,5 50 0,0
16.08.2018 19:00:00 17,8 15,2 17,5 25 14 32 18 ZZW 1013,9 49 0,0
16.08.2018 18:00:00 16,8 15,3 16,7 7 4 32 18 ZW 1014,1 31 0,1
16.08.2018 17:00:00 16,5 15,7 16,5 14 8 36 19 W 1014,2 12 0,1
16.08.2018 16:00:00 19,1 17,0 18,9 32 18 47 25 WZW 1013,5 17 0,0
16.08.2018 15:00:00 19,3 17,4 19,5 32 18 43 23 ZW 1013,3 14 0,0
16.08.2018 14:00:00 18,6 17,0 18,4 36 19 50 27 ZW 1013,4 18 0,1
16.08.2018 13:00:00 18,8 17,2 18,9 36 19 50 27 ZZW 1013,2 10 0,0
16.08.2018 12:00:00 19,7 16,9 19,2 36 19 47 25 ZW 1013,3 17 0,0
16.08.2018 11:00:00 18,8 16,9 18,8 32 18 47 25 ZZW 1013,5 19 0,0
16.08.2018 10:00:00 18,4 16,8 18,2 36 19 43 23 ZZW 1013,2 17 0,0
16.08.2018 09:00:00 18,7 16,8 18,7 32 18 43 23 ZZW 1013,3 19 0,0
16.08.2018 08:00:00 18,7 16,7 18,8 32 18 43 23 ZZW 1013,5 19 0,0
16.08.2018 07:00:00 18,3 16,6 18,1 29 16 40 21 ZZW 1013,7 21 0,0
16.08.2018 06:00:00 18,7 16,5 18,5 32 18 40 21 ZZW 1013,8 22 0,0
16.08.2018 05:00:00 18,9 16,5 18,7 29 16 40 21 ZZW 1014,1 25 0,0
16.08.2018 04:00:00 19,1 16,4 18,6 29 16 40 21 ZZW 1014,5 28 0,0
16.08.2018 03:00:00 18,6 16,2 18,0 29 16 40 21 ZZW 1014,7 26 0,0
16.08.2018 02:00:00 18,9 16,6 18,6 25 14 40 21 ZZW 1015,4 22 0,0
16.08.2018 01:00:00 19,1 16,5 18,8 29 16 43 23 ZZW 1015,9 23 0,0
16.08.2018 00:00:00 19,6 16,1 19,3 32 18 40 21 ZZW 1016,1 31 0,0
15.08.2018 23:00:00 19,1 16,4 18,8 25 14 36 19 ZW 1016,4 30 0,0
15.08.2018 22:00:00 18,9 16,2 18,4 25 14 36 19 ZW 1016,5 32 0,0
15.08.2018 21:00:00 18,8 15,6 18,4 25 14 40 21 ZZW 1016,5 32 0,0
15.08.2018 20:00:00 19,5 15,8 19,3 32 18 43 23 ZW 1016,5 30 0,0
15.08.2018 19:00:00 19,5 15,7 19,4 32 18 43 23 ZW 1016,8 25 0,0
15.08.2018 18:00:00 20,2 16,1 20,1 32 18 43 23 ZW 1016,9 27 0,0
15.08.2018 17:00:00 20,6 16,5 21,3 32 18 47 25 WZW 1017,0 24 0,0
15.08.2018 16:00:00 22,1 17,0 23,5 36 19 43 23 ZW 1017,0 23 0,0
15.08.2018 15:00:00 22,3 17,8 24,1 29 16 40 21 ZW 1017,2 21 0,0
15.08.2018 14:00:00 21,9 17,4 22,9 25 14 32 18 ZW 1017,1 30 0,0
15.08.2018 13:00:00 21,6 17,9 22,6 22 12 29 16 ZZW 1017,1 27 0,0
15.08.2018 12:00:00 21,4 18,2 23,3 22 12 25 14 ZZW 1016,9 20 0,0
15.08.2018 11:00:00 21,1 18,2 22,9 18 10 22 12 ZZW 1016,8 20 0,0
15.08.2018 10:00:00 21,8 17,1 22,7 7 4 14 8 W 1016,6 44 0,0
15.08.2018 09:00:00 20,7 17,3 21,2 11 6 18 10 W 1016,2 31 0,0
15.08.2018 08:00:00 19,3 17,8 19,0 11 6 18 10 WZW 1016,0 26 0,0
15.08.2018 07:00:00 18,1 17,2 17,7 14 8 25 14 ZW 1015,6 17 0,0
15.08.2018 06:00:00 18,8 17,1 18,3 18 10 25 14 ZW 1015,2 24 0,0
15.08.2018 05:00:00 18,9 16,6 18,5 18 10 29 16 ZW 1015,6 36 0,0
15.08.2018 04:00:00 19,1 16,3 18,6 22 12 29 16 WZW 1015,8 37 0,0
15.08.2018 03:00:00 18,7 15,2 18,2 18 10 25 14 WZW 1015,8 45 0,0
15.08.2018 02:00:00 18,5 16,0 17,9 18 10 22 12 WZW 1016,0 38 0,0
15.08.2018 01:00:00 17,3 14,8 16,7 18 10 22 12 WZW 1016,0 32 0,0
15.08.2018 00:00:00 17,9 15,4 17,5 18 10 29 16 WZW 1015,9 28 0,0
14.08.2018 23:00:00 17,9 15,7 17,6 18 10 25 14 WZW 1016,0 19 0,0
14.08.2018 22:00:00 17,8 15,9 17,5 14 8 22 12 W 1016,0 36 0,0
14.08.2018 21:00:00 18,2 15,6 17,9 14 8 25 14 WZW 1015,7 46 0,0
14.08.2018 20:00:00 18,3 14,6 18,2 18 10 29 16 W 1015,3 47 0,0
14.08.2018 19:00:00 19,2 14,1 19,7 22 12 29 16 W 1015,2 39 0,0
14.08.2018 18:00:00 18,9 14,3 19,5 22 12 36 19 W 1015,0 34 0,0
14.08.2018 17:00:00 20,2 15,1 21,7 29 16 36 19 WNW 1014,9 35 0,0
14.08.2018 16:00:00 20,8 14,9 21,3 25 14 40 21 WNW 1014,6 35 0,0
14.08.2018 15:00:00 19,8 14,6 20,5 29 16 43 23 WNW 1014,1 34 0,0
14.08.2018 14:00:00 20,7 15,1 21,7 32 18 47 25 WNW 1013,3 29 0,0
14.08.2018 13:00:00 20,5 15,3 21,8 32 18 47 25 WNW 1012,5 29 0,0
14.08.2018 12:00:00 19,8 15,0 20,4 29 16 43 23 WNW 1011,9 35 0,0
14.08.2018 11:00:00 19,8 15,2 19,0 32 18 47 25 WNW 1011,2 28 0,0
14.08.2018 10:00:00 19,1 15,3 18,8 29 16 47 25 WNW 1010,4 27 0,0
14.08.2018 09:00:00 18,1 15,3 17,5 32 18 50 27 NW 1009,6 23 0,0
14.08.2018 08:00:00 17,1 16,4 16,8 32 18 47 25 NW 1008,8 4,9 0,2
14.08.2018 07:00:00 17,1 16,1 16,9 32 18 43 23 WNW 1007,9 15 0,0
14.08.2018 06:00:00 17,6 15,6 17,2 29 16 40 21 WNW 1007,3 25 0,0
14.08.2018 05:00:00 17,3 16,3 17,0 29 16 40 21 WNW 1007,0 15 0,1
14.08.2018 04:00:00 17,6 17,0 17,4 18 10 29 16 W 1006,5 10 0,1
14.08.2018 03:00:00 17,5 16,7 16,9 14 8 25 14 W 1006,4 20 0,0
14.08.2018 02:00:00 17,2 16,1 16,5 18 10 29 16 W 1006,4 41 0,0
14.08.2018 01:00:00 17,4 16,6 17,0 14 8 25 14 W 1006,3 41 0,0
14.08.2018 00:00:00 17,2 16,7 16,9 11 6 14 8 W 1006,1 40 0,2
13.08.2018 23:00:00 17,2 16,9 17,0 11 6 29 16 W 1005,8 14 4,9
13.08.2018 22:00:00 17,7 17,0 17,3 14 8 22 12 WNW 1005,5 9 0,4
13.08.2018 21:00:00 18,2 16,9 17,8 18 10 25 14 WZW 1005,3 22 0,1
13.08.2018 20:00:00 18,7 17,0 18,7 18 10 25 14 WZW 1005,0 24 0,0
13.08.2018 19:00:00 19,1 17,5 19,3 14 8 18 10 W 1004,8 28 0,0
13.08.2018 18:00:00 18,2 17,4 18,3 14 8 18 10 W 1004,9 17 1,3
13.08.2018 17:00:00 17,4 16,9 17,4 7 4 22 12 W 1005,0 8 3,5
13.08.2018 16:00:00 17,7 16,5 17,9 18 10 29 16 W 1004,9 12 2,5
13.08.2018 15:00:00 19,5 16,4 19,5 14 8 29 16 NNW 1004,5 28 0,1
13.08.2018 14:00:00 21,7 17,5 23,6 18 10 29 16 NW 1004,3 34 0,0
13.08.2018 13:00:00 21,5 16,1 22,6 7 4 14 8 NNO 1004,6 39 0,0
13.08.2018 12:00:00 20,0 17,6 20,7 14 8 18 10 N 1004,5 38 0,0
13.08.2018 11:00:00 19,3 17,2 19,4 7 4 14 8 N 1004,6 29 0,3
13.08.2018 10:00:00 18,0 16,8 18,1 7 4 14 8 WNW 1005,0 17 0,7
13.08.2018 09:00:00 18,9 17,3 18,7 4 2 11 6 N 1005,2 18 0,0
13.08.2018 08:00:00 18,2 16,7 17,9 4 2 11 6 NO 1005,2 22 0,0
13.08.2018 07:00:00 18,3 15,9 17,4 7 4 11 6 NNW 1005,1 29 0,0
13.08.2018 06:00:00 18,1 16,4 17,4 7 4 22 12 O 1005,4 28 0,0
13.08.2018 05:00:00 17,6 17,1 16,9 4 2 11 6 OZO 1006,0 21 0,0
13.08.2018 04:00:00 17,7 17,1 17,1 7 4 11 6 O 1006,6 15 0,0
13.08.2018 03:00:00 17,9 16,6 16,9 0 0 14 8 N 1007,5 21 0,1
13.08.2018 02:00:00 18,3 17,0 16,3 7 4 11 6 Z 1008,0 20 0,0
13.08.2018 01:00:00 17,1 16,6 15,2 7 4 7 4 ZO 1008,2 32 0,0
13.08.2018 00:00:00 17,3 16,3 14,9 4 2 14 8 Z 1008,5 38 0,0
12.08.2018 23:00:00 18,6 17,5 17,4 11 6 11 6 Z 1009,2 37 0,0
12.08.2018 22:00:00 17,5 16,2 16,1 7 4 11 6 ZZW 1009,5 30 0,0
12.08.2018 21:00:00 19,4 16,3 18,9 7 4 18 10 ZW 1009,4 46 0,0
12.08.2018 20:00:00 20,9 16,2 20,8 14 8 25 14 ZW 1009,7 42 0,0
12.08.2018 19:00:00 21,3 14,8 21,1 22 12 36 19 ZW 1010,3 46 0,0
12.08.2018 18:00:00 22,1 15,0 22,4 25 14 40 21 ZW 1010,7 41 0,0
12.08.2018 17:00:00 22,9 15,7 23,0 29 16 40 21 ZW 1011,1 46 0,0
12.08.2018 16:00:00 22,3 15,8 23,3 32 18 40 21 ZZW 1011,7 37 0,0
12.08.2018 15:00:00 21,6 15,8 22,5 29 16 43 23 ZZW 1012,1 38 0,0
12.08.2018 14:00:00 22,7 15,8 24,1 32 18 43 23 ZZW 1012,5 40 0,0
12.08.2018 13:00:00 22,0 16,1 22,8 25 14 40 21 ZZW 1012,9 36 0,0
12.08.2018 12:00:00 19,4 15,1 19,8 32 18 40 21 Z 1013,4 39 0,0
12.08.2018 11:00:00 18,1 15,8 17,8 29 16 36 19 Z 1013,7 25 0,0
12.08.2018 10:00:00 16,5 15,6 16,5 25 14 32 18 Z 1014,3 13 0,1
12.08.2018 09:00:00 15,8 15,1 15,4 22 12 40 21 Z 1015,1 6 0,1
12.08.2018 08:00:00 16,3 13,1 16,1 22 12 32 18 ZZO 1015,5 35 0,0
12.08.2018 07:00:00 16,3 12,5 16,1 22 12 32 18 ZZO 1015,8 40 0,0
12.08.2018 06:00:00 16,8 11,8 16,2 22 12 29 16 ZZW 1016,5 46 0,0
12.08.2018 05:00:00 16,4 11,9 15,9 22 12 29 16 Z 1017,0 48 0,0
12.08.2018 04:00:00 16,3 11,7 15,7 22 12 25 14 ZZW 1017,7 50 0,0
12.08.2018 03:00:00 15,9 10,5 14,8 18 10 22 12 ZZW 1018,2 50 0,0
12.08.2018 02:00:00 14,8 10,1 13,3 18 10 22 12 ZW 1018,8 50 0,0
12.08.2018 01:00:00 14,6 10,0 13,5 14 8 22 12 ZW 1019,4 50 0,0
12.08.2018 00:00:00 14,4 10,3 13,1 14 8 18 10 WZW 1019,9 50 0,0
11.08.2018 23:00:00 14,0 10,6 12,3 14 8 22 12 WZW 1020,4 50 0,0
11.08.2018 22:00:00 13,0 9,4 12,1 11 6 22 12 W 1020,8 50 0,0
11.08.2018 21:00:00 15,3 10,3 14,7 18 10 25 14 W 1020,9 49 0,0
11.08.2018 20:00:00 16,3 10,5 16,0 22 12 32 18 W 1020,9 49 0,0
11.08.2018 19:00:00 18,3 11,1 18,0 25 14 40 21 W 1021,2 46 0,0
11.08.2018 18:00:00 18,7 11,0 19,0 25 14 43 23 W 1021,1 36 0,0
11.08.2018 17:00:00 19,1 12,4 19,4 25 14 40 21 W 1021,1 39 0,0
11.08.2018 16:00:00 18,8 12,2 20,2 29 16 47 25 W 1020,9 32 0,0
11.08.2018 15:00:00 19,5 12,4 20,1 32 18 47 25 W 1020,8 39 0,0
11.08.2018 14:00:00 20,2 12,5 19,4 29 16 50 27 W 1020,6 35 0,0
11.08.2018 13:00:00 18,1 12,3 17,4 32 18 50 27 W 1020,2 33 0,0
11.08.2018 12:00:00 19,2 11,3 20,6 32 18 47 25 W 1019,9 39 0,0
11.08.2018 11:00:00 18,5 11,0 19,4 36 19 47 25 W 1019,4 33 0,0
11.08.2018 10:00:00 17,2 10,3 17,7 32 18 47 25 W 1018,9 40 0,0
11.08.2018 09:00:00 16,8 11,1 16,2 29 16 40 21 W 1018,3 43 0,0
11.08.2018 08:00:00 15,9 10,7 15,4 29 16 40 21 W 1017,8 41 0,0
11.08.2018 07:00:00 14,6 9,9 13,5 25 14 36 19 W 1017,2 50 0,0
11.08.2018 06:00:00 14,0 9,9 13,3 25 14 36 19 W 1016,9 49 0,0
11.08.2018 05:00:00 14,5 10,4 13,7 25 14 36 19 W 1016,6 43 0,0
11.08.2018 04:00:00 14,7 10,2 14,0 29 16 43 23 WNW 1016,4 40 0,0
11.08.2018 03:00:00 14,7 9,4 14,0 22 12 32 18 W 1016,3 47 0,0
11.08.2018 02:00:00 14,4 10,3 13,6 22 12 32 18 W 1016,2 49 0,0
11.08.2018 01:00:00 14,0 11,0 13,4 14 8 36 19 W 1015,8 50 0,0
11.08.2018 00:00:00 14,8 11,8 14,0 25 14 40 21 W 1016,0 50 0,2
10.08.2018 23:00:00 14,9 12,2 14,5 29 16 72 39 WZW 1015,9 49 0,0
10.08.2018 22:00:00 16,6 14,3 15,9 54 29 83 45 ZZW 1015,2 23 0,1
10.08.2018 21:00:00 16,0 14,1 15,0 47 25 58 31 Z 1015,7 9 3,1

tt = temperatuur
td = dauwpunt
tt 5cm = temperatuur 5cm
ff = windsnelheid
fx = windstoten
dd = windrichting
ppp = luchtdruk
vv = zicht
rr = neerslag

Weerstations in de omgeving